OneWeb SL0060

operational
NORAD ID: 45455 Int'l Des: 2020-020 Owner: ONEWEB Country: UK Constellation: oneweb
LEOCIRCULARPOLARONEWEB_TYPE

OneWeb SL0060について

説明を読み込み中...

リアルタイム位置

3D地球を読み込み中...

次回通過

高度履歴

Altitude vs Time

uPlot chart will show altitude changes over time

軌道要素

1 45455U 20020AH 26034.50103264 .00000016 00000-0 10596-4 0 9995
2 45455 87.8810 47.6703 0001175 58.9500 301.1743 13.11415078285022
Epoch: Feb 3, 2026 • Age: 20 hours

現在のステータス

高度 1227.7 km
速度 7.24 km/s
衛星直下点 -27.12°S, 151.47°E
打ち上げ日 Mar 21, 2020
運用期間 5.8 years
タイプ internet

技術仕様

分類 Payload
質量 148.00 kg
乾燥質量 140.00 kg
総質量 148.00 kg
長さ 1.30 m
直径 1.00 m
スパン 5.00 m
形状 Trapezoid+2 pan
製造者 ONEWUS
バスタイプ ARROW
フェーズステータス In Orbit
所有者/国 ONEWEB/UK

大規模コンステレーション

Loading constellations...